Heure de lever du soleil au 23-09-2017 / 265 ° de l'année/ semaine 3807 h 36 Heure de coucher du soleil au 23-09-2017 / 265 ° de l'année/ semaine 3819 h 49

Compte Facebook Association Météo Centre     Compte Twitter Association Météo Centre - @AssoMétéoCentre     Chaîne Youtube Association Météo Centre     Bouton contact Association Météo Centre 

Gif alerte météo

Choix de la station :
Période à consulter :
Aujourd'hui


 

Conditions météo à Abbeville - Altitude 77m

  

Date du relevé23/09/2017 à 16:00
Base des nuages1000 à 1500m
Visibilité20km
Nébulosité5/8 (nuages fragmentés)
Vent6 km/h ESE
Température18.6 °C
Humidité55.1 %
Point de rosée9.4 °C
Pression absolue1013.6 hPa
Pression relative1022.1 hPa
Variation pression-1.2 hPa stationnaire ou en hausse puis en baisse, puis en baisse plus rapide
Nuages basParmi les nuages présents, il y a prédominance de Cumulus à faible extension verticale et paraissant aplatis.
Nuages moyensLa majeure partie des Altocumulus est respectivement opaque ou semi-transparente.
Nuages élevésLa nébulosité des Cirrus denses, des Cirrus avec bourgeonnements en forme de petites tours ou de créneaux et des Cirrus en flocons, considérés dans leur ensemble, est supérieure à la nébulosité des Cirrus en forme de filaments, de brins ou de crochets, considérés dans leur ensemble.


Historique météo des dernières 24 heures à Abbeville


Date - Heure Base des nuages Visibilité Nébulosité Vent Température Humidité Point rosée Pression Précipitations Temps
23/09 16:00 1000 à 1500m 20km 5/8 6 km/h ESE 18.6 °C 55.1 % 9.4 °C 1022.1 hPa
23/09 15:00 1000 à 1500m 20km 7/8 4 km/h ESE 18.3 °C 47 % 6.8 °C 1022.8 hPa
23/09 14:00 20km 7/8 4 km/h ESE 17.5 °C 55.9 % 8.6 °C 1023.1 hPa 0 mm/6h
23/09 13:00 1000 à 1500m 12km 7/8 4 km/h ESE 15.9 °C 68.9 % 10.2 °C 1023.4 hPa
23/09 12:00 10km 7/8 2 km/h SSE 15.1 °C 76 % 10.9 °C 1023.9 hPa
23/09 11:00 10km 7/8 2 km/h SSE 14.4 °C 79 % 10.8 °C 1024 hPa
23/09 10:00 8km 5/8 2 km/h SE 11 °C 94.2 % 10.1 °C 1024 hPa
23/09 09:00 4000m 6/8 2 km/h SE 8.1 °C 97.3 % 7.7 °C 1024.1 hPa
23/09 08:00 4000m 6/8 4 km/h SE 7.3 °C 97.3 % 6.9 °C 1024 hPa 0.4 mm/12h
23/09 07:00 6km 6/8 6 km/h ESE 7.6 °C 97.3 % 7.2 °C 1023.9 hPa
23/09 06:00 6km 6/8 4 km/h ESE 7.9 °C 96 % 7.3 °C 1023.9 hPa
23/09 05:00 5000m 4 km/h SE 7.8 °C 96 % 7.2 °C 1024.1 hPa
23/09 04:00 5000m 4 km/h ESE 7.6 °C 94.7 % 6.8 °C 1024.4 hPa
23/09 03:00 5000m 4 km/h ESE 7.8 °C 94.7 % 7 °C 1024.2 hPa
23/09 02:00 7km 4 km/h ESE 8.2 °C 94.1 % 7.3 °C 1024.6 hPa 0.2 mm/6h
23/09 01:00 9km 4 km/h SE 9.5 °C 92.8 % 8.4 °C 1024.4 hPa
23/09 00:00 16km 4 km/h S 10.1 °C 91 % 8.7 °C 1024.3 hPa
22/09 23:00 11km 2 km/h S 10.7 °C 89.2 % 9 °C 1024.3 hPa
22/09 22:00 19km 2 km/h SSE 11.4 °C 86.9 % 9.3 °C 1024.2 hPa
22/09 21:00 20km 2 km/h O 11.3 °C 85.2 % 8.9 °C 1023.9 hPa
22/09 20:00 20km 2 km/h ONO 12.8 °C 78.7 % 9.2 °C 1023.5 hPa 0 mm/12h
22/09 19:00 20km 6 km/h ONO 15 °C 71.1 % 9.8 °C 1023.1 hPa
22/09 18:00 20km 7 km/h ONO 16.1 °C 69.9 % 10.6 °C 1022.8 hPa
22/09 17:00 600 à 1000m 40km 2/8 7 km/h ONO 16.8 °C 69.1 % 11.1 °C 1022.5 hPa

L'association Météo Centre n'est pas responsable de la mise à jour de ces données.

Météo-Centre.fr depuis 2008
Nos informations ne doivent jamais servir à la protection des biens et des personnes. Elles n'engagent pas la responsabilité de l'association Météo Centre.
Contact - Haut de page - Partenaires - Mentions légales